Location: Unspecified
(0.0000°N, 0.0000°E)
Time: 11:29:22
(UTC+00:00)

A-11 Canister half - Visible Passes

Search period start: 20 April 2024 00:00
Search period end: 30 April 2024 00:00
Orbit: 1525 x 1683 km, 47.3° (Epoch: 19 April)

Date Brightness Start Highest point End Pass type
(mag) Time Alt. Az. Time Alt. Az. Time Alt. Az.
20 Apr 10.1 02:29:58 36° ENE 02:29:58 36° ENE 02:35:23 10° NE visible
20 Apr 9.9 04:28:18 26° WNW 04:30:41 29° NW 04:38:52 10° N visible
21 Apr 10.5 02:09:49 26° ENE 02:09:49 26° ENE 02:13:31 10° NE visible
21 Apr 9.8 04:08:08 30° NW 04:08:53 31° NW 04:17:18 10° N visible
22 Apr 10.9 01:49:35 18° ENE 01:49:35 18° ENE 01:51:39 10° NE visible
22 Apr 9.8 03:47:54 33° NW 03:47:54 33° NW 03:55:42 10° NNE visible
23 Apr 11.2 01:29:17 12° ENE 01:29:17 12° ENE 01:29:45 10° ENE visible
23 Apr 9.9 03:27:35 32° NNW 03:27:35 32° NNW 03:34:05 10° NNE visible
24 Apr 10.1 03:07:12 29° N 03:07:12 29° N 03:12:29 10° NNE visible
25 Apr 10.4 02:46:46 25° N 02:46:46 25° N 02:50:50 10° NNE visible
26 Apr 10.7 02:26:15 21° N 02:26:15 21° N 02:29:11 10° NNE visible
27 Apr 10.9 02:05:41 17° NNE 02:05:41 17° NNE 02:07:31 10° NNE visible
28 Apr 11.1 01:45:03 13° NNE 01:45:03 13° NNE 01:45:51 10° NNE visible
